Home > Weather > West Palm Beach > Past weeks

Flag for USA Past Weather in West Palm Beach, Florida, USA — Yesterday and Last 2 Weeks

Now
87 °F

Thunderstorms. Broken clouds.


Feels Like: 95 °F
Forecast: 76 / 89 °F
Wind: 7 mph from North

Location: Palm Beach International Airport

Current Time: Jul 23, 2016 at 1:09:34 PM

Latest Report: Jul 23, 2016 at 12:53 PM


Visibility: 7 mi

Pressure: 30.06 "Hg

Humidity: 63%

Dew Point: 73 °F

Location of West Palm BeachLocation

Past Weather in West Palm Beach — Graph

°F

West Palm Beach Temperature Yesterday

Maximum temperature yesterday: 89 °F (at 10:53 AM)
Minimum temperature yesterday: 77 °F (at 7:53 PM)
Average temperature yesterday: 82 °F

High & Low Weather Summary for the Past Weeks

 TemperatureHumidityPressure
High94 °F (Jul 8, 1:53 PM)91% (Jul 23, 6:53 AM)30.19 "Hg (Jul 23, 6:53 AM)
Low76 °F (Jul 23, 6:53 AM)46% (Jul 9, 11:53 AM)30.01 "Hg (Jul 15, 6:53 PM)
Average86 °F67%30.10 "Hg
* Reported Jul 8 11:53 AM — Jul 23 11:53 AM, West Palm Beach, Weather by CustomWeather, © 2016

Note: Actual official high and low records may vary slightly from our data, if they occured in-between our weather recording intervals... More about our weather records

Advertising

West Palm Beach Weather History for the Previous 24 Hours

Scroll right to see more
 ConditionsComfort  
Time TempWeatherWind HumidityBarometerVisibility
11:53 AM
Sat, Jul 23
87 °FScattered clouds.5 mph65%30.05 "Hg10 mi
10:53 AM88 °FScattered clouds.No wind61%30.04 "Hg10 mi
9:53 AM86 °FScattered clouds.No wind67%30.04 "Hg10 mi
8:53 AM83 °FScattered clouds.3 mph77%30.03 "Hg10 mi
7:53 AM80 °FScattered clouds.No wind85%30.02 "Hg10 mi
6:53 AM76 °FPassing clouds.No wind91%30.02 "Hg10 mi
5:53 AM77 °FPassing clouds.No wind88%30.02 "Hg10 mi
4:53 AM77 °FPassing clouds.No wind88%30.02 "Hg10 mi
3:53 AM77 °FPassing clouds.5 mph88%30.03 "Hg10 mi
2:53 AM77 °FPassing clouds.No wind88%30.04 "Hg10 mi
1:53 AM77 °FPassing clouds.No wind88%30.04 "Hg10 mi
12:53 AM78 °FPassing clouds.No wind84%30.06 "Hg10 mi
11:53 PM
Fri, Jul 22
78 °FPassing clouds.3 mph84%30.06 "Hg10 mi
10:53 PM78 °FPassing clouds.5 mph84%30.07 "Hg10 mi
9:53 PM77 °FPartly cloudy.3 mph85%30.04 "Hg10 mi
8:53 PM77 °FBroken clouds.3 mph79%30.03 "Hg10 mi
7:53 PM77 °FThunderstorms. Broken clouds.10 mph85%30.06 "Hg4 mi
6:53 PM85 °FBroken clouds.9 mph72%30.03 "Hg10 mi
5:53 PM84 °FBroken clouds.6 mph61%30.04 "Hg10 mi
4:53 PM85 °FBroken clouds.3 mph72%30.07 "Hg10 mi
3:53 PM81 °FBroken clouds.5 mph79%30.07 "Hg10 mi
2:53 PM79 °FBroken clouds.3 mph82%30.09 "Hg10 mi
1:53 PM78 °FBroken clouds.3 mph84%30.10 "Hg10 mi
Weather by CustomWeather, © 2016

See weather overviewHow to use our weather pages